Location: Joplin
(37.0842°N, 94.5131°W)
Time: 23:55:49
(UTC-06:00)

ISS - Pass Details

Date: 22 January 2019
Orbit: 403 x 411 km, 51.6° (Epoch: 23 February)

Event Time Altitude Azimuth Distance (km) Brightness Sun altitude
Rises 18:28:10 0° 220° (SW) 2,315 1.0 -11.3°
Reaches altitude 10° 18:30:15 10° 217° (SW) 1,461 -0.2 -11.7°
Maximum altitude 18:33:29 60° 137° (SE) 470 -3.7 -12.4°
Enters shadow 18:35:23 22° 62° (ENE) 944 -2.6 -12.7°
